Doylestown, PA

8:17 AM EST on December 08, 2019 (GMT -0500)
Doylestown

Weather History for KDYL - October, 2019

Change the Weather History Date:

Saturday, October 26, 2019

  Actual Average (WUND) Record (WUND)
Temperature  
Mean Temperature 55 °F -  
Max Temperature 66 °F - - (-1)
Min Temperature 46 °F - - (-1)
Degree Days  
Heating Degree Days 10    
Growing Degree Days 5 (Base 50)    
Moisture  
Dew Point 46 °F    
Average Humidity 70    
Maximum Humidity 90    
Minimum Humidity 43    
Precipitation  
Precipitation 0.00 in - - ()
Sea Level Pressure  
Sea Level Pressure 30.21 in    
Wind  
Wind Speed 2 mph (NE)    
Max Wind Speed 8 mph    
Max Gust Speed -    
Visibility 10 miles    
Events Rain    
Averages and records for this station are not official NWS values.
T = Trace of Precipitation, MM = Missing Value Source: NWS Daily Summary

Daily Weather History Graph

Daily Weather History Graph

Search for Another Location

Airport or City:

Astronomy

Oct. 26, 2019 Rise Set
Actual Time 7:23 AM EDT 6:05 PM EDT
Civil Twilight 6:55 AM EDT 6:33 PM EDT
Nautical Twilight 6:23 AM EDT 7:05 PM EDT
Astronomical Twilight 5:51 AM EDT 7:36 PM EDT
Moon 5:15 AM EDT (10/26) 5:39 PM EDT (10/26)
Length of Visible Light 11h 38m
Length of Day
10h 42m
Waning Crescent, 3% of the Moon is Illuminated
Oct 26
Waning Crescent
Oct 27
New
Nov 4
First Quarter
Nov 12
Full
Nov 19
Last Quarter

Hourly Weather History & Observations

Time (EDT) Temp. Dew Point Humidity Pressure Visibility Wind Dir Wind Speed Gust Speed Precip Events Conditions
12:54 AM 57.0 °F 48.0 °F 72% 30.17 in 10.0 mi Calm Calm - N/A   Mostly Cloudy
1:54 AM 55.0 °F 48.9 °F 80% 30.16 in 10.0 mi Calm Calm - N/A   Clear
2:54 AM 53.1 °F 48.0 °F 83% 30.17 in 10.0 mi Calm Calm - N/A   Clear
3:54 AM 50.0 °F 46.9 °F 89% 30.16 in 10.0 mi Calm Calm - N/A   Clear
4:54 AM 48.9 °F 46.0 °F 90% 30.18 in 10.0 mi Calm Calm - N/A   Clear
5:54 AM 48.0 °F 45.0 °F 89% 30.19 in 9.0 mi Calm Calm - N/A   Clear
6:54 AM 46.9 °F 44.1 °F 90% 30.20 in 10.0 mi Calm Calm - N/A   Clear
7:54 AM 48.0 °F 44.1 °F 86% 30.23 in 10.0 mi NNE 4.6 mph - N/A   Clear
8:54 AM 52.0 °F 46.0 °F 80% 30.25 in 10.0 mi Calm Calm - N/A   Clear
9:54 AM 61.0 °F 46.0 °F 58% 30.25 in 10.0 mi NNE 8.1 mph - N/A   Clear
10:54 AM 62.1 °F 43.0 °F 50% 30.24 in 10.0 mi NNE 4.6 mph - N/A   Clear
11:54 AM 63.0 °F 42.1 °F 46% 30.23 in 10.0 mi Variable 4.6 mph - N/A   Clear
12:54 PM 64.0 °F 42.1 °F 45% 30.22 in 10.0 mi Variable 3.5 mph - N/A   Clear
1:54 PM 64.9 °F 42.1 °F 43% 30.20 in 10.0 mi Variable 3.5 mph - N/A   Clear
2:54 PM 64.9 °F 43.0 °F 45% 30.19 in 10.0 mi Variable 3.5 mph - N/A   Clear
3:54 PM 63.0 °F 44.1 °F 50% 30.20 in 10.0 mi Variable 3.5 mph - 0.00 in   Overcast
4:54 PM 61.0 °F 46.0 °F 58% 30.21 in 10.0 mi Calm Calm - 0.00 in Rain Light Rain
5:54 PM 59.0 °F 48.0 °F 67% 30.21 in 10.0 mi Variable 5.8 mph - 0.00 in   Overcast
6:54 PM 55.9 °F 46.9 °F 72% 30.23 in 10.0 mi SSE 8.1 mph - 0.00 in   Overcast
7:54 PM 55.0 °F 48.0 °F 77% 30.22 in 10.0 mi Calm Calm - N/A   Overcast
8:54 PM 55.0 °F 46.9 °F 74% 30.22 in 10.0 mi Calm Calm - N/A   Overcast
9:54 PM 55.0 °F 46.9 °F 74% 30.24 in 10.0 mi Calm Calm - 0.00 in Rain Light Rain
10:54 PM 53.1 °F 48.0 °F 83% 30.22 in 10.0 mi Calm Calm - 0.00 in Rain Light Rain
11:54 PM 53.1 °F 48.0 °F 83% 30.19 in 10.0 mi Variable 3.5 mph - 0.00 in   Mostly Cloudy